Volver al catálogo

STARLINK-30828

ActivoComunicacionesVLEO
NORAD 58671·PAYLOAD·🇺🇸 United States

Lanzado Dec 29, 2023 desde Cape Canaveral Space Force Station

Loading…

Próximos Pases (próximas 24 horas)

TLE

ActualizadoSource: CelesTrak SupGP

Época: Sep 14, 2026, 21:05 UTC

1 58671C 23211E   26257.87895833 -.00003138  00000+0 -11368-3 0  2574
2 58671  42.9993  96.8944 0001389 265.7249 251.4919 15.27570629    17

Sigue STARLINK-30828 en tiempo real con AllMySat

Download on the App Store